Wind_Speed
25 26 26 26 28 28 29 30 31 31 33 35 36 36 35 36 36 36 36 36 36 37 37 37 38 38 38 39 40 40 40 41 41 42 42 41 41 40 40 41 40 40 40 40
25 25 24 25 26 26 27 28 29 30 31 33 35 36 35 35 36 35 35 36 36 36 36 36 37 37 38 39 40 41 41 42 43 43 43 43 42 42 42 42 42 41 41 41
24 23 24 24 25 25 26 27 28 29 30 31 33 35 34 34 34 34 35 35 34 35 35 36 37 38 38 39 40 41 42 42 43 43 44 44 43 42 42 43 43 43 43 44
24 23 24 24 23 24 25 26 27 28 29 30 31 33 32 33 33 34 34 35 35 35 35 35 36 37 38 39 40 41 41 42 42 43 43 44 44 44 43 44 44 44 44 44
23 22 23 23 23 24 25 26 27 28 29 30 30 32 32 31 32 33 34 34 34 34 34 34 34 35 37 38 38 39 40 41 41 42 43 44 44 45 45 45 45 44 44 43
23 23 23 23 23 24 24 25 27 28 29 30 29 31 31 30 31 31 32 33 33 33 33 34 34 34 35 37 37 38 39 40 41 42 43 43 43 44 45 45 45 45 44 44
22 23 23 23 22 23 23 24 26 27 29 30 29 30 30 29 29 30 30 31 32 32 33 34 35 35 35 36 36 37 38 39 40 41 42 42 41 42 43 44 44 44 45 45
22 22 22 23 22 22 23 24 25 27 29 29 29 30 29 28 28 28 29 30 30 32 33 34 35 35 36 36 36 37 37 38 39 40 40 40 40 41 41 42 42 43 44 44
21 22 22 22 22 22 23 24 25 26 28 29 29 30 28 27 27 27 28 28 29 30 31 32 33 34 35 36 37 37 37 37 37 38 38 39 40 41 41 42 42 42 42 43
20 21 21 21 22 23 24 24 24 25 27 28 29 28 28 27 27 26 27 28 29 30 31 31 32 33 34 35 36 37 37 37 37 37 37 38 39 40 42 42 42 42 41 42
21 21 21 21 22 22 23 24 24 25 27 28 29 29 27 27 28 28 28 29 30 30 31 31 32 33 34 34 35 35 35 35 35 36 37 38 38 39 41 42 42 42 43 42
21 21 20 20 22 23 24 24 25 26 27 29 30 29 27 27 28 28 29 30 30 31 31 31 32 32 33 34 34 34 34 35 35 35 36 37 37 38 38 39 39 40 41 42
22 22 21 21 22 23 24 24 26 27 28 29 30 29 27 28 28 29 30 30 30 30 30 31 32 32 32 32 33 33 33 34 34 35 35 35 36 36 36 37 37 38 39 39
23 23 22 22 23 24 24 25 25 27 28 29 29 28 28 29 29 29 29 29 29 29 29 30 31 31 32 32 32 32 32 33 33 34 34 34 34 34 35 36 36 36 36 37
24 24 24 23 24 25 26 26 27 27 27 28 27 28 27 28 29 28 28 27 28 28 29 29 30 30 31 31 31 31 31 32 33 33 33 33 33 33 34 34 35 35 35 36
24 25 25 25 25 26 27 27 27 28 29 29 28 27 26 27 28 27 27 27 27 28 28 29 30 30 30 30 31 31 31 32 32 32 32 32 32 32 32 33 34 34 34 35
25 26 27 27 26 27 27 25 27 28 28 29 28 26 25 25 26 27 28 27 27 28 29 29 29 29 29 30 30 31 31 32 32 32 31 32 32 32 32 32 33 34 34 34
26 26 26 27 27 28 25 25 26 27 27 28 28 27 26 25 25 26 26 26 27 27 28 28 29 30 30 31 32 32 32 32 32 32 32 32 33 33 33 32 33 33 33 33
25 25 25 26 26 27 25 24 25 26 26 26 27 27 27 27 27 26 26 27 27 28 28 28 29 30 30 31 32 32 32 32 32 31 31 32 32 32 32 32 32 33 33 32
24 24 25 25 26 26 24 23 23 24 24 23 25 26 26 27 27 26 27 27 27 28 28 29 30 31 31 32 32 32 31 31 31 31 31 31 31 31 31 31 31 32 32 31
24 24 24 24 25 24 23 23 23 23 23 23 24 25 26 26 26 26 26 26 27 27 28 29 30 30 31 31 32 32 31 31 31 31 31 30 30 30 30 30 30 30 30 30
23 23 23 23 24 23 22 22 23 23 23 24 24 24 25 25 25 26 25 25 26 26 27 28 29 30 30 30 30 30 30 30 31 31 31 31 31 30 30 30 30 30 30 30
23 23 23 23 23 22 22 22 22 22 23 23 23 24 24 24 25 25 25 25 25 26 27 28 28 27 27 27 28 28 28 28 28 28 29 30 29 29 29 29 28 28 28 28
22 22 23 24 23 23 22 22 22 22 22 22 23 23 24 24 24 24 24 25 26 27 27 26 26 25 25 25 25 25 26 26 25 25 26 26 26 26 26 26 26 26 25 25
21 21 22 23 23 23 22 22 22 22 22 22 22 23 24 24 24 24 23 24 25 25 24 24 24 24 23 23 23 23 24 24 24 24 24 24 24 24 24 24 24 24 24 24
20 20 20 20 21 21 21 22 21 22 22 23 24 24 24 24 23 23 23 23 23 23 23 22 22 22 22 22 22 22 23 23 23 23 23 23 22 22 22 22 22 22 22 22
Wind_Direction
264 260 258 256 254 255 255 255 255 254 253 253 252 252 251 252 253 253 254 254 254 254 254 254 255 255 255 255 256 257 258 259 260 260 260 260 260 260 262 264 264 264 266 267
266 261 259 257 256 257 256 256 255 255 254 254 253 253 253 254 254 254 255 255 256 254 253 254 256 257 257 257 257 258 259 260 260 260 261 260 260 260 261 263 264 264 266 268
267 263 260 259 260 259 258 257 257 257 256 256 256 254 254 254 255 255 256 256 256 257 257 257 257 257 258 259 259 260 260 261 261 261 261 261 261 262 262 263 263 265 266 267
267 263 262 261 261 261 259 259 258 257 257 257 258 258 253 254 255 256 257 258 257 258 259 260 259 259 259 259 260 261 261 261 261 261 262 262 261 262 263 263 263 265 265 267
267 262 261 262 262 263 263 261 261 259 259 260 259 260 257 256 257 257 258 258 258 259 259 260 260 260 260 260 261 261 261 261 261 261 262 262 262 262 263 263 263 264 265 265
266 261 261 263 263 263 263 262 262 261 261 262 261 262 261 260 260 260 260 260 258 258 259 258 259 261 262 262 262 262 263 263 263 264 263 262 262 262 263 263 263 263 263 263
267 261 261 263 263 262 261 261 263 262 262 263 263 263 263 262 262 261 261 260 259 258 258 258 260 261 263 263 264 264 265 265 265 266 265 264 263 263 263 262 263 263 263 263
271 264 263 263 264 264 261 261 262 264 265 264 264 265 264 264 264 263 262 261 260 260 259 260 262 263 264 264 265 266 266 267 266 266 266 266 264 263 262 263 263 263 262 262
275 269 264 264 265 265 263 262 264 267 268 267 266 268 267 265 265 265 264 264 263 262 262 262 263 264 265 266 266 266 267 267 267 266 266 266 265 263 263 263 264 263 263 262
273 269 267 266 266 266 265 264 265 266 268 270 269 268 268 267 266 266 265 265 265 265 266 266 266 265 265 266 267 268 268 267 267 266 265 266 266 265 264 263 263 263 263 263
273 271 269 266 266 266 264 263 265 266 266 269 271 270 270 269 269 268 267 266 266 266 266 267 267 266 266 267 268 267 267 267 267 267 266 267 267 266 265 264 264 264 264 264
272 270 270 268 267 266 264 264 265 267 268 268 271 272 272 272 270 269 269 269 268 267 267 267 268 269 269 269 268 267 267 267 267 268 267 268 268 267 267 265 264 265 265 266
271 269 269 268 267 267 267 266 266 267 268 271 271 272 274 273 272 271 271 270 268 268 268 268 269 270 270 271 269 267 266 266 267 269 269 269 269 269 267 265 265 266 266 266
269 269 270 271 271 271 269 269 268 268 268 271 273 273 272 274 274 273 272 270 269 268 267 267 269 270 270 270 269 267 268 268 268 269 271 270 270 269 267 265 264 264 265 265
269 270 271 271 271 270 270 270 269 268 270 272 274 273 273 273 273 273 273 271 270 269 267 267 268 268 269 270 268 268 268 268 268 269 269 269 270 269 267 264 264 264 265 264
269 270 270 270 271 272 271 271 270 269 270 273 274 274 274 272 272 272 272 272 271 269 268 267 267 268 269 269 269 269 268 268 268 268 268 269 269 269 267 264 264 265 265 264
268 269 270 270 271 272 272 273 271 270 270 272 273 274 273 272 271 271 272 272 271 270 269 268 268 268 269 269 270 269 268 269 268 267 268 269 269 269 268 266 265 266 267 266
267 269 270 272 272 271 275 273 272 272 271 271 272 271 272 272 273 273 273 273 272 271 270 269 268 268 269 269 269 268 268 268 269 269 269 270 270 268 268 267 267 267 267 267
265 267 270 273 274 274 274 277 276 274 272 272 273 272 272 272 272 272 273 274 274 273 271 270 269 269 270 270 270 270 268 268 269 270 270 270 271 270 268 268 268 268 269 269
265 267 269 273 276 278 278 278 277 276 275 276 276 275 276 274 273 274 273 274 275 274 273 272 272 271 272 271 270 270 269 269 270 270 271 271 272 271 270 269 269 269 269 269
266 267 269 272 275 278 280 279 278 278 279 278 279 278 277 276 275 274 274 275 275 276 277 277 275 274 273 273 272 270 270 270 270 269 270 271 272 271 270 270 270 269 268 268
266 268 270 271 273 277 280 279 279 280 279 279 280 279 278 276 274 273 273 274 276 278 279 279 278 276 275 274 273 272 272 271 270 270 270 271 270 270 270 270 269 268 267 268
266 266 267 268 271 276 278 277 278 279 280 280 281 279 278 276 275 274 273 274 276 278 280 281 280 278 277 276 274 274 273 273 273 273 273 272 271 270 269 268 267 267 267 267
266 265 266 268 271 274 276 275 275 277 278 280 280 280 278 278 277 276 276 276 279 282 283 282 281 279 278 277 276 274 273 274 275 275 275 274 271 270 269 268 268 267 266 268
264 265 266 267 270 272 273 274 273 274 277 279 282 282 281 280 279 278 278 280 282 285 285 284 282 280 278 278 276 274 274 274 276 276 276 275 272 269 268 268 267 265 264 265
260 263 265 267 269 271 273 276 277 277 278 281 283 285 284 282 281 280 279 282 283 285 286 285 283 282 278 276 275 274 276 277 277 277 275 274 274 271 268 267 267 265 264 264
Height
5685 5687 5688 5690 5692 5693 5694 5695 5697 5699 5699 5701 5703 5706 5709 5710 5712 5715 5717 5719 5720 5722 5723 5725 5726 5727 5728 5729 5731 5732 5733 5734 5735 5737 5738 5739 5740 5740 5741 5741 5741 5742 5742 5742
5679 5681 5682 5682 5683 5684 5685 5687 5689 5691 5691 5692 5694 5697 5700 5702 5704 5706 5708 5710 5711 5712 5714 5715 5717 5717 5718 5719 5720 5721 5723 5724 5725 5726 5727 5729 5730 5730 5731 5731 5732 5732 5732 5732
5672 5675 5675 5675 5676 5677 5678 5680 5682 5683 5684 5684 5686 5689 5692 5693 5695 5697 5699 5700 5702 5703 5704 5706 5707 5708 5709 5710 5711 5712 5713 5713 5715 5715 5717 5718 5719 5720 5720 5721 5722 5722 5722 5722
5666 5667 5668 5669 5670 5670 5671 5673 5674 5675 5675 5676 5678 5679 5684 5686 5687 5689 5690 5692 5693 5694 5695 5696 5697 5698 5699 5700 5700 5701 5702 5703 5704 5705 5706 5707 5708 5709 5710 5710 5710 5711 5711 5711
5660 5661 5661 5662 5664 5664 5665 5666 5667 5667 5667 5668 5670 5671 5676 5678 5679 5681 5682 5683 5684 5685 5686 5687 5687 5688 5689 5689 5690 5691 5692 5693 5693 5694 5695 5695 5696 5698 5698 5698 5698 5699 5699 5700
5654 5654 5655 5656 5657 5657 5658 5659 5659 5660 5660 5661 5663 5663 5666 5669 5671 5672 5673 5674 5675 5676 5677 5677 5678 5678 5679 5680 5680 5681 5681 5682 5682 5683 5683 5684 5685 5685 5686 5687 5687 5687 5688 5689
5648 5648 5649 5650 5650 5651 5652 5653 5652 5652 5652 5654 5656 5655 5659 5661 5662 5663 5664 5665 5666 5667 5667 5668 5668 5669 5669 5670 5670 5670 5671 5671 5671 5672 5672 5672 5673 5673 5674 5675 5675 5676 5677 5677
5642 5643 5643 5643 5644 5645 5645 5646 5646 5646 5646 5647 5647 5647 5651 5653 5654 5654 5655 5656 5656 5657 5658 5659 5659 5659 5660 5660 5660 5660 5660 5660 5660 5660 5661 5661 5661 5662 5662 5663 5664 5665 5665 5666
5635 5637 5637 5637 5638 5639 5639 5639 5640 5640 5639 5639 5640 5641 5644 5645 5646 5646 5646 5647 5647 5648 5649 5649 5649 5650 5650 5650 5650 5650 5650 5650 5650 5650 5650 5650 5650 5651 5651 5652 5653 5653 5653 5654
5629 5630 5631 5631 5632 5632 5633 5633 5633 5633 5632 5631 5633 5634 5636 5637 5638 5638 5638 5638 5639 5639 5639 5639 5640 5640 5640 5640 5640 5639 5639 5639 5639 5639 5639 5639 5640 5640 5640 5641 5641 5641 5641 5642
5624 5625 5625 5626 5626 5626 5627 5627 5626 5626 5626 5625 5625 5630 5629 5629 5629 5630 5630 5630 5629 5630 5630 5630 5630 5630 5630 5630 5629 5629 5629 5629 5629 5629 5629 5629 5629 5629 5629 5629 5629 5629 5629 5630
5618 5618 5619 5620 5620 5619 5620 5620 5620 5620 5620 5619 5618 5624 5622 5622 5621 5621 5621 5621 5621 5621 5621 5621 5621 5621 5621 5620 5620 5620 5620 5620 5620 5619 5619 5619 5618 5618 5618 5618 5618 5618 5618 5618
5612 5612 5613 5613 5615 5614 5613 5614 5613 5612 5612 5611 5611 5616 5614 5613 5612 5612 5612 5612 5612 5612 5612 5612 5612 5612 5611 5611 5610 5610 5610 5610 5610 5609 5609 5609 5608 5608 5607 5607 5607 5607 5607 5607
5605 5605 5607 5607 5607 5606 5606 5607 5606 5605 5604 5604 5605 5606 5606 5605 5604 5604 5603 5603 5603 5603 5603 5603 5603 5602 5602 5601 5601 5601 5601 5601 5600 5600 5600 5599 5599 5598 5597 5597 5597 5596 5596 5596
5598 5599 5599 5599 5599 5598 5598 5598 5597 5597 5597 5596 5597 5597 5598 5596 5595 5595 5594 5594 5594 5594 5594 5593 5593 5593 5592 5592 5592 5592 5591 5591 5591 5591 5590 5590 5589 5588 5587 5587 5586 5586 5586 5586
5591 5591 5591 5592 5591 5590 5589 5590 5590 5589 5589 5588 5588 5589 5589 5587 5586 5586 5586 5585 5585 5585 5585 5585 5584 5584 5584 5583 5583 5583 5582 5582 5582 5581 5581 5580 5579 5579 5578 5577 5577 5577 5577 5576
5585 5584 5584 5584 5584 5581 5582 5584 5583 5582 5581 5580 5579 5582 5580 5579 5578 5578 5577 5577 5577 5577 5576 5576 5576 5575 5575 5574 5574 5573 5573 5572 5572 5572 5571 5570 5570 5569 5568 5568 5567 5567 5567 5567
5578 5577 5576 5576 5576 5573 5579 5576 5575 5573 5573 5572 5572 5572 5572 5571 5570 5570 5569 5569 5568 5568 5568 5567 5567 5566 5566 5565 5565 5564 5564 5563 5563 5562 5562 5561 5560 5560 5559 5558 5558 5557 5557 5557
5570 5570 5569 5568 5566 5566 5570 5569 5567 5565 5565 5565 5564 5564 5563 5562 5562 5562 5561 5560 5560 5559 5559 5558 5557 5557 5556 5556 5555 5554 5554 5553 5553 5553 5552 5552 5551 5550 5549 5549 5549 5548 5548 5547
5563 5562 5562 5561 5559 5559 5563 5562 5559 5558 5558 5558 5556 5555 5555 5554 5554 5555 5553 5552 5551 5550 5550 5549 5548 5547 5547 5546 5545 5545 5544 5544 5543 5543 5543 5542 5541 5540 5540 5539 5539 5539 5538 5538
5555 5555 5554 5553 5552 5552 5556 5553 5552 5552 5553 5550 5549 5548 5547 5547 5547 5547 5545 5544 5543 5542 5541 5540 5539 5538 5537 5536 5535 5535 5535 5534 5533 5533 5533 5532 5531 5531 5530 5530 5530 5529 5529 5529
5547 5547 5547 5546 5545 5548 5548 5546 5546 5545 5544 5542 5541 5540 5539 5539 5538 5538 5537 5536 5535 5534 5533 5531 5530 5529 5528 5527 5526 5525 5525 5524 5523 5523 5523 5522 5521 5521 5520 5520 5520 5520 5520 5520
5540 5541 5540 5540 5542 5541 5540 5539 5538 5537 5536 5535 5534 5533 5532 5531 5530 5530 5529 5528 5527 5526 5525 5523 5521 5520 5519 5518 5517 5516 5516 5515 5514 5513 5513 5512 5511 5511 5511 5510 5510 5510 5510 5510
5533 5533 5533 5533 5533 5533 5533 5532 5531 5530 5529 5528 5527 5526 5525 5524 5523 5522 5521 5521 5519 5518 5516 5515 5513 5512 5511 5510 5508 5508 5507 5506 5505 5504 5504 5503 5502 5502 5501 5501 5501 5501 5502 5502
5526 5526 5525 5525 5526 5526 5526 5525 5524 5523 5522 5521 5520 5519 5518 5517 5516 5515 5514 5513 5512 5510 5509 5507 5506 5504 5503 5502 5501 5500 5499 5498 5497 5496 5496 5495 5494 5493 5493 5493 5493 5493 5494 5494
5519 5519 5519 5520 5520 5519 5519 5518 5517 5516 5516 5515 5513 5512 5511 5510 5509 5508 5507 5506 5504 5503 5501 5500 5499 5497 5496 5495 5494 5493 5492 5491 5490 5489 5488 5487 5486 5485 5485 5485 5485 5485 5486 5486